This is the latest recevied weather packets stored in our database for station/object SQ8AQX-13. If no packets are shown the sender has not sent any weather packets the latest 10 day(s).
| Time | Temp. | Humidity | Pressure | Rain* | Wind** | Luminosity | Snow |
|---|---|---|---|---|---|---|---|
| 1777643578 | 18.89° C | 36% | 1026.6 hPa | - | - | - | - |
| 1777642978 | 18.89° C | 35% | 1026.6 hPa | - | - | - | - |
| 1777639378 | 18.89° C | 36% | 1027.3 hPa | - | - | - | - |
| 1777638778 | 18.33° C | 37% | 1027.4 hPa | - | - | - | - |
| 1777638180 | 18.33° C | 38% | 1027.5 hPa | - | - | - | - |
| 1777636376 | 18.33° C | 35% | 1027.8 hPa | - | - | - | - |
| 1777635176 | 17.78° C | 38% | 1027.9 hPa | - | - | - | - |
| 1777633377 | 16.11° C | 41% | 1028.2 hPa | - | - | - | - |
| 1777631575 | 16.67° C | 38% | 1028.4 hPa | - | - | - | - |
| 1777630975 | 16.67° C | 39% | 1028.5 hPa | - | - | - | - |
| 1777630375 | 15.56° C | 41% | 1028.4 hPa | - | - | - | - |
| 1777628575 | 15.56° C | 37% | 1028.6 hPa | - | - | - | - |
| 1777627975 | 15° C | 40% | 1028.7 hPa | - | - | - | - |
| 1777627375 | 15° C | 38% | 1028.7 hPa | - | - | - | - |
| 1777625575 | 13.89° C | 39% | 1029.1 hPa | - | - | - | - |
| 1777624975 | 13.33° C | 39% | 1029.2 hPa | - | - | - | - |
| 1777624375 | 13.33° C | 39% | 1029.2 hPa | - | - | - | - |
| 1777621974 | 12.22° C | 38% | 1029.5 hPa | - | - | - | - |
| 1777621374 | 11.67° C | 41% | 1029.5 hPa | - | - | - | - |
| 1777620774 | 11.67° C | 42% | 1029.7 hPa | - | - | - | - |
| 1777620174 | 10.56° C | 42% | 1029.6 hPa | - | - | - | - |
| 1777618374 | 10° C | 46% | 1029.5 hPa | - | - | - | - |
| 1777617773 | 10° C | 45% | 1029.4 hPa | - | - | - | - |
| 1777617173 | 9.44° C | 46% | 1029.5 hPa | - | - | - | - |
| 1777615375 | 7.78° C | 49% | 1029.6 hPa | - | - | - | - |
* Rain since midnight (hover to see other rain measurements)
** Current wind speed in m/s (hover to see current wind gust speed)